Hourly Data Report for September 15, 2017

All times are specified in Local Standard Time (LST). Add 1 hour to adjust for Daylight Saving Time where and when it is observed.

KUGAARUK CLIMATE
NUNAVUT

68°32'15.060" N
89°47'47.020" W
15.80 m
2303094
71407
NBB

Download Data

Hourly Data (September 2017)
Hourly Data Report for September 15, 2017
Temp Definition
°C
Dew Point Temp Definition
°C
Rel Hum Definition
%
Wind Dir Definition
10's deg

Wind Spd Definition
km/h
Visibility Definition
km
Stn Press Definition
kPa
Hmdx Definition


Wind Chill Definition


Weather Definition


TIME
00:00 1.3 -0.6 87 25 21   101.17     LegendNANA
01:00 1.1 -1.1 85 26 20   101.17     LegendNANA
02:00 1.0 -1.4 84 25 20   101.16     LegendNANA
03:00 0.6 -1.3 87 25 21   101.14     LegendNANA
04:00 0.6 -1.4 87 26 26   101.14     LegendNANA
05:00 0.5 -1.6 86 25 23   101.13     LegendNANA
06:00 0.8 -1.2 87 24 23   101.13     LegendNANA
07:00 0.4 -0.3 95 25 28   101.10     LegendNANA
08:00 0.6 -1.3 87 25 26   101.07     LegendNANA
09:00 1.0 -1.5 83 26 22   101.07     LegendNANA
10:00 1.2 -1.7 81 27 18   101.05     LegendNANA
11:00 2.0 -1.8 76 24 16   101.06     LegendNANA
12:00 1.5 -2.4 75 24 15   101.06     LegendNANA
13:00 1.6 -2.5 74 24 11   101.06     LegendNANA
14:00 1.7 -2.4 74 25 8   101.04     LegendNANA
15:00 2.4 -2.6 70 25 6   101.04     LegendNANA
16:00 1.8 -1.9 77 23 4   101.05     LegendNANA
17:00 1.6 -1.6 79 18 2   101.08     LegendNANA
18:00 -0.1 -2.0 87 0 1   101.10   0 LegendNANA
19:00 -0.1 -1.9 88 4 4   101.08   -1 LegendNANA
20:00 0.1 -1.2 91 5 5   101.11     LegendNANA
21:00 0.3 -1.1 90 9 3   101.11     LegendNANA
22:00 -0.2 -1.6 90 4 3   101.14   -1 LegendNANA
23:00 -0.2 -1.4 92   0   101.15     LegendNANA

Notes on Data Quality.

Legend

  • E = Estimated
  • M = Missing
  • NA = Not Available
  • ‡ = Partner data that is not subject to review by the National Climate Archives
Date modified: